SENTINEL-2C

Last updated on Sun Apr 27 2025 00:02:26 GMT+0000 (Coordinated Universal Time)

1 60989U 24157A 25116.45951813 .00000272 00000+0 12035-3 0 9996 2 60989 98.5634 192.3068 0001160 97.0077 263.1238 14.30817533 33394
UTC large
Height (km)
Speed (km/s)
/
Latitude / Longitude
Inclination (degrees)
Orbital Period (minutes)
Azimuth
Elevation
Range (km)
Doppler Factor

Next 0 passes for location: London (51.5072 / 0.1276)

Sorry there are no passes over London.